Flag for Germany Weather past 2 weeks in Leipzig, Saxony, Germany

Now
46 °F

Sunny.


Feels Like: 38 °F
Forecast: 35 / 44 °F
Wind: 23 mph from West

Location: Leipzig-Schkeuditz

Current Time: Mar 2, 2015 at 4:53:53 PM

Latest Report: Mar 2, 2015 at 4:20 PM


Visibility: 10 mi

Pressure: 29.65 "Hg

Humidity: 46%

Dew point: 27 °F

Location of LeipzigLocation

Historic Weather in Leipzig — Graph

°F

Leipzig temperature yesterday

Maximum temperature yesterday: 50 °F (at 2:50 PM)
Minimum temperature yesterday: 32 °F (at 12:20 AM)
Average temperature yesterday: 41 °F

Past Weeks' High & Low Weather Summary

 TemperatureHumidityPressure
High52 °F (Feb 20, 2:20 PM)100% (Feb 16, 5:20 AM)30.74 "Hg (Feb 16, 5:20 AM)
Low27 °F (Feb 17, 1:20 AM)37% (Feb 26, 3:20 PM)29.42 "Hg (Feb 21, 11:50 AM)
Average37 °F81%29.97 "Hg
* Reported Feb 15 3:20 PM — Mar 2 3:50 PM, Leipzig, Weather by CustomWeather, © 2015

Note: Actual official high and low records may vary slightly from our data, if they occured in-between our weather recording intervals... More about our weather records

Advertising

Leipzig weather history for previous 24 hours

 ConditionsComfort  
Time TempWeatherWind HumidityBarometerVisibility
3:50 PM
Mon, Mar 2
48 °FSunny.25 mph40%29.65 "Hg10 mi
3:20 PM48 °FSunny.21 mph40%29.62 "Hg10 mi
2:50 PM48 °FScattered clouds.24 mph40%29.62 "HgN/A
2:20 PM46 °FScattered clouds.28 mph46%29.62 "HgN/A
1:50 PM46 °FPassing clouds.28 mph50%29.59 "HgN/A
1:20 PM46 °FPassing clouds.28 mph50%29.59 "HgN/A
12:50 PM46 °FPassing clouds.29 mph46%29.59 "HgN/A
12:20 PM46 °FScattered clouds.30 mph50%29.59 "HgN/A
11:50 AM45 °FPassing clouds.24 mph53%29.56 "HgN/A
11:20 AM45 °FScattered clouds.29 mph57%29.56 "HgN/A
10:50 AM43 °FScattered clouds.26 mph66%29.56 "HgN/A
10:20 AM45 °FScattered clouds.24 mph61%29.53 "HgN/A
9:50 AM43 °FScattered clouds.24 mph71%29.53 "HgN/A
9:20 AM43 °FScattered clouds.21 mph76%29.53 "HgN/A
8:50 AM41 °FPartly sunny.16 mph81%29.50 "HgN/A
8:20 AM41 °FPassing clouds.18 mph76%29.50 "HgN/A
7:50 AM41 °FPassing clouds.21 mph81%29.50 "HgN/A
7:20 AM41 °FScattered clouds.22 mph87%29.47 "HgN/A
6:50 AM41 °FLight rain. Passing clouds.16 mph87%29.45 "HgN/A
6:20 AM41 °FLight rain. Passing clouds.20 mph93%29.45 "HgN/A
5:50 AM41 °FRain showers. Passing clouds.25 mph93%29.45 "HgN/A
5:20 AM43 °FLight rain. Passing clouds.13 mph93%29.42 "HgN/A
4:50 AM43 °FClear.10 mph87%29.42 "Hg10 mi
4:20 AM43 °FPassing clouds.13 mph87%29.42 "HgN/A
3:50 AM43 °FPassing clouds.13 mph93%29.45 "HgN/A
3:20 AM43 °FClear.12 mph87%29.47 "Hg10 mi
2:50 AM43 °FClear.12 mph87%29.47 "Hg10 mi
2:20 AM43 °FClear.12 mph87%29.50 "Hg10 mi
1:50 AM41 °FClear.9 mph87%29.53 "Hg10 mi
1:20 AM41 °FClear.8 mph87%29.56 "Hg10 mi
12:50 AM43 °FClear.9 mph76%29.56 "Hg10 mi
12:20 AM43 °FClear.12 mph81%29.59 "Hg10 mi
11:50 PM
Sun, Mar 1
41 °FClear.12 mph87%29.59 "Hg10 mi
11:20 PM41 °FClear.13 mph87%29.59 "Hg10 mi
10:50 PM41 °FClear.12 mph87%29.59 "Hg10 mi
10:20 PM43 °FClear.13 mph81%29.59 "Hg10 mi
9:50 PM43 °FClear.12 mph81%29.62 "Hg10 mi
9:20 PM45 °FClear.15 mph81%29.62 "Hg10 mi
8:20 PM45 °FClear.13 mph81%29.62 "Hg10 mi
7:50 PM45 °FClear.13 mph81%29.62 "Hg10 mi
7:20 PM45 °FClear.16 mph76%29.62 "Hg10 mi
6:50 PM45 °FClear.14 mph76%29.62 "Hg10 mi
6:20 PM45 °FPassing clouds.14 mph76%29.62 "HgN/A
5:50 PM45 °FScattered showers. Partly cloudy.17 mph76%29.62 "HgN/A
5:20 PM45 °FPartly sunny.21 mph76%29.62 "HgN/A
4:50 PM46 °FBroken clouds.18 mph71%29.62 "HgN/A
4:20 PM46 °FPartly sunny.21 mph71%29.62 "HgN/A
Weather by CustomWeather, © 2015

See weather overviewHow to use our weather pages